Regional Weather Roundup
Issued by NWS Huntsville, AL

Current Version | Previous Version | Text Only | Print | Product List | Glossary On
Versions: 1 2 3 4 5 6 7 8 9 10 11 12 13 14 15 16 17 18 19 20 21 22 23 24 25 26 27 28 29 30 31 32 33 34 35 36 37 38 39 40 41 42 43 44 45 46 47 48 49
000 ASUS44 KHUN 041210 RWRHUN WEATHER ROUNDUP FOR THE TENNESSEE VALLEY NATIONAL WEATHER SERVICE HUNTSVILLE AL 600 AM CST THU MAR 04 2021 ALZ001>004-041300- NORTHWEST ALABAMA CITY SKY/WX TMP DP RH WIND PRES REMARKS SHOALS AIRPORT CLEAR 36 31 82 CALM 30.15S 6HR MIN TEMP: 36; 6HR MAX TEMP: 44; $$ ALZ005>007-016-041300- NORTH CENTRAL ALABAMA CITY SKY/WX TMP DP RH WIND PRES REMARKS CULLMAN AG STN N/A 32 N/A N/A CALM N/A DECATUR AP CLEAR 33 31 92 CALM 30.16R 6HR MIN TEMP: 33; 6HR MAX TEMP: 39; HUNTSVILLE AP CLEAR 34 34 100 CALM 30.15R 6HR MIN TEMP: 34; 6HR MAX TEMP: 41; HUN NWS/UAH N/A 37 34 90 CALM N/A MERIDIANVILLE CLEAR 33 31 94 CALM 30.16R VINEMONT AP FAIR 33 30 88 CALM 30.16R $$ ALZ008>010-041300- NORTHEAST ALABAMA CITY SKY/WX TMP DP RH WIND PRES REMARKS ALBERTVILLE CLEAR 37 32 81 CALM 30.13R FORT PAYNE CLEAR 31 29 94 NE3 30.14R SCOTTSBORO AP PTCLDY 34 34 100 CALM 30.16R $$ TNZ076-096-097-041300- SOUTHEASTERN MIDDLE TENNESSEE CITY SKY/WX TMP DP RH WIND PRES REMARKS FAYETTEVILLE CLEAR 37 32 81 CALM 30.16S TULLAHOMA CLEAR 30 28 93 CALM 30.14R WINCHESTER CLEAR 32 32 100 CALM 30.14R $$ ...SURROUNDING SITES... CITY SKY/WX TMP DP RH WIND PRES REMARKS ATLANTA CLEAR 44 30 57 NW13 30.07R ANNISTON CLEAR 33 30 88 CALM 30.14R BIRMINGHAM CLEAR 36 32 85 CALM 30.17R CHATTANOOGA CLEAR 37 34 89 CALM 30.13R CORINTH CLEAR 36 34 93 CALM 30.16S DALTON CLEAR 37 34 87 CALM 30.13R GADSDEN CLEAR 30 29 96 CALM 30.15R GOLDEN TRNGL CLEAR 37 37 100 CALM 30.17S HALEYVILLE FAIR 30 30 100 N3 30.17R JACKSON TN CLEAR 33 30 88 CALM 30.15S MEMPHIS CLEAR 41 36 82 CALM 30.15S NASHVILLE CLEAR 36 30 79 S5 30.15R WCI 32 OXFORD MS CLEAR 32 32 100 CALM 30.18S ROME CLEAR 34 30 85 CALM 30.11R SAVANNAH PTCLDY 32 32 100 CALM 30.16R SELMER CLEAR 36 34 93 CALM 30.15R TUPELO CLEAR 38 35 89 CALM 30.17R TUSCALOOSA CLEAR 36 34 92 CALM 30.16R $$

USA.gov is the U.S. government's official web portal to all federal, state and local government web resources and services.